Location: Newark
(50.5930°N, 3.6720°W)
Time: 00:05:56
(UTC+00:00)

Envisat - Visible Passes

Search period start: 24 September 2020 00:00
Search period end: 04 October 2020 00:00
Orbit: 764 x 766 km, 98.1° (Epoch: 23 September)

Date Brightness Start Highest point End Pass type
(mag) Time Alt. Az. Time Alt. Az. Time Alt. Az.
24 Sep 6.1 18:46:42 10° SW 18:50:06 18° W 18:53:30 10° NW visible
25 Sep 6.1 05:10:16 10° NE 05:13:47 18° E 05:17:17 10° SE visible
26 Sep 6.8 19:14:55 10° W 19:15:56 11° W 19:16:57 10° WNW visible
27 Sep 5.4 05:35:03 10° NNE 05:39:31 29° E 05:43:56 10° SSE visible
27 Sep 6.0 18:34:43 10° SW 18:38:36 22° W 18:42:30 10° NW visible
28 Sep 6.2 04:59:23 10° NE 05:02:17 15° E 05:05:10 10° ESE visible
29 Sep 6.4 19:01:58 10° WSW 19:04:23 13° W 19:06:49 10° WNW visible
30 Sep 5.7 05:23:55 10° NE 05:28:02 24° E 05:32:08 10° SE visible
30 Sep 5.6 18:22:53 10° SSW 18:27:07 26° W 18:31:23 10° NW visible
01 Oct 6.5 04:48:48 10° ENE 04:50:45 12° E 04:52:41 10° ESE visible
02 Oct 6.2 18:49:41 10° SW 18:52:51 16° W 18:56:03 10° NW visible
03 Oct 6.0 05:12:51 10° NE 05:16:34 20° E 05:20:14 10° SE visible
